,,,PA_Meas_PMT16A,,PR_Meas_QMR101_102,,RH_Meas_QMH101,,SR_Meas_QMS101,,TA_Meas_QMH101,,GenWind,,GenWind,
date,time,status,PA,status,PR,status,RH,status,SR,status,TA,status,DirAvg,status,SpdAvg,
2010-02-06, 00:00:04,VALID,1006.76,VALID,0,VALID,94.9338,VALID,0,VALID,23.0418,VALID,6,VALID,0.296875,
2010-02-06, 00:01:04,VALID,1006.74,VALID,0,VALID,94.9262,VALID,0,VALID,23.0613,VALID,6,VALID,0.357031,
2010-02-06, 00:02:04,VALID,1006.72,VALID,0,VALID,94.9185,VALID,0,VALID,23.0613,VALID,6,VALID,0.303906,
2010-02-06, 00:03:04,VALID,1006.72,VALID,0,VALID,94.9414,VALID,0,VALID,23.0595,VALID,6,VALID,0.107031,
2010-02-06, 00:04:04,VALID,1006.69,VALID,0,VALID,94.9567,VALID,0,VALID,23.0807,VALID,6,VALID,0,
2010-02-06, 00:05:04,VALID,1006.66,VALID,0,VALID,94.9643,VALID,0,VALID,23.0807,VALID,6,VALID,0,
2010-02-06, 00:06:04,VALID,1006.64,VALID,0,VALID,94.9643,VALID,0,VALID,23.079,VALID,6,VALID,0,
2010-02-06, 00:07:04,VALID,1006.63,VALID,0,VALID,94.9643,VALID,0,VALID,23.1002,VALID,6,VALID,0.108984,
2010-02-06, 00:08:04,VALID,1006.61,VALID,0,VALID,94.9796,VALID,0,VALID,23.0807,VALID,6,VALID,0,
2010-02-06, 00:09:04,VALID,1006.61,VALID,0,VALID,94.9796,VALID,0,VALID,23.0401,VALID,6,VALID,0,
2010-02-06, 00:10:04,VALID,1006.56,VALID,0,VALID,94.9796,VALID,0,VALID,23.0595,VALID,6,VALID,0,
2010-02-06, 00:11:04,VALID,1006.55,VALID,0,VALID,94.9948,VALID,0,VALID,23.0807,VALID,6,VALID,0,
2010-02-06, 00:12:04,VALID,1006.54,VALID,0,VALID,94.9948,VALID,0,VALID,23.0807,VALID,6,VALID,0,
2010-02-06, 00:13:04,VALID,1006.56,VALID,0,VALID,94.9719,VALID,0,VALID,23.0613,VALID,6,VALID,0,
2010-02-06, 00:14:04,VALID,1006.52,VALID,0,VALID,95.0101,VALID,0,VALID,23.0401,VALID,6,VALID,0,
2010-02-06, 00:15:04,VALID,1006.51,VALID,0,VALID,95.0024,VALID,0,VALID,23.0401,VALID,6,VALID,0,
2010-02-06, 00:16:04,VALID,1006.49,VALID,0,VALID,95.0253,VALID,0,VALID,23.0613,VALID,6,VALID,0,
2010-02-06, 00:17:04,VALID,1006.49,VALID,0,VALID,95.0177,VALID,0,VALID,23.0613,VALID,6,VALID,0,
2010-02-06, 00:18:04,VALID,1006.47,VALID,0,VALID,95.0406,VALID,0,VALID,23.0418,VALID,6,VALID,0,
2010-02-06, 00:19:04,VALID,1006.49,VALID,0,VALID,95.0253,VALID,0,VALID,23.0613,VALID,7,VALID,0,
2010-02-06, 00:20:04,VALID,1006.47,VALID,0,VALID,95.0253,VALID,0,VALID,23.0807,VALID,6,VALID,0,
2010-02-06, 00:21:04,VALID,1006.47,VALID,0,VALID,95.0482,VALID,0,VALID,23.0613,VALID,6,VALID,0,
2010-02-06, 00:22:04,VALID,1006.45,VALID,0,VALID,95.0177,VALID,0,VALID,23.0595,VALID,6,VALID,0,
2010-02-06, 00:23:04,VALID,1006.44,VALID,0,VALID,95.0406,VALID,0,VALID,23.0595,VALID,6,VALID,0,
2010-02-06, 00:24:04,VALID,1006.42,VALID,0,VALID,95.0406,VALID,0,VALID,23.0595,VALID,6,VALID,0,
2010-02-06, 00:25:04,VALID,1006.41,VALID,0,VALID,95.0635,VALID,0,VALID,23.0595,VALID,6,VALID,0,
2010-02-06, 00:26:04,VALID,1006.41,VALID,0,VALID,95.0711,VALID,0,VALID,23.0807,VALID,6,VALID,0,
2010-02-06, 00:27:04,VALID,1006.39,VALID,0,VALID,95.0558,VALID,0,VALID,23.0595,VALID,6,VALID,0,
2010-02-06, 00:28:04,VALID,1006.36,VALID,0,VALID,95.0711,VALID,0,VALID,23.1002,VALID,6,VALID,0,
2010-02-06, 00:29:04,VALID,1006.36,VALID,0,VALID,95.0787,VALID,0,VALID,23.1197,VALID,6,VALID,0,
2010-02-06, 00:30:04,VALID,1006.35,VALID,0,VALID,95.0787,VALID,0,VALID,23.1179,VALID,6,VALID,0,
2010-02-06, 00:31:04,VALID,1006.31,VALID,0,VALID,95.094,VALID,0,VALID,23.1391,VALID,6,VALID,0,
2010-02-06, 00:32:04,VALID,1006.3,VALID,0,VALID,95.094,VALID,0,VALID,23.1179,VALID,6,VALID,0,
2010-02-06, 00:33:04,VALID,1006.26,VALID,0,VALID,95.0787,VALID,0,VALID,23.1197,VALID,6,VALID,0,
2010-02-06, 00:34:04,VALID,1006.26,VALID,0,VALID,95.0864,VALID,0,VALID,23.1179,VALID,6,VALID,0,
2010-02-06, 00:35:04,VALID,1006.25,VALID,0,VALID,95.0787,VALID,0,VALID,23.0984,VALID,6,VALID,0,
2010-02-06, 00:36:04,VALID,1006.19,VALID,0,VALID,95.0711,VALID,0,VALID,23.1019,VALID,6,VALID,0,
2010-02-06, 00:37:04,VALID,1006.15,VALID,0,VALID,95.0482,VALID,0,VALID,23.0613,VALID,6,VALID,0,
2010-02-06, 00:38:04,VALID,1006.1,VALID,0,VALID,95.033,VALID,0,VALID,23.0613,VALID,6,VALID,0,
2010-02-06, 00:39:04,VALID,1006.11,VALID,0,VALID,95.0253,VALID,0,VALID,23.0613,VALID,6,VALID,0,
2010-02-06, 00:40:04,VALID,1006.1,VALID,0,VALID,95.0177,VALID,0,VALID,23.0401,VALID,6,VALID,0,
2010-02-06, 00:41:04,VALID,1006.06,VALID,0,VALID,95.0177,VALID,0,VALID,23.0401,VALID,6,VALID,0,
2010-02-06, 00:42:04,VALID,1006.04,VALID,0,VALID,95.0253,VALID,0,VALID,23.0613,VALID,6,VALID,0,
2010-02-06, 00:43:04,VALID,1006.01,VALID,0,VALID,95.033,VALID,0,VALID,23.0418,VALID,6,VALID,0,
2010-02-06, 00:44:04,VALID,1006.02,VALID,0,VALID,95.033,VALID,0,VALID,23.0401,VALID,6,VALID,0,
2010-02-06, 00:45:04,VALID,1006,VALID,0,VALID,95.0406,VALID,0,VALID,23.0613,VALID,6,VALID,0,
2010-02-06, 00:46:04,VALID,1005.96,VALID,0,VALID,95.0406,VALID,0,VALID,23.0613,VALID,6,VALID,0,
2010-02-06, 00:47:04,VALID,1005.95,VALID,0,VALID,95.033,VALID,0,VALID,23.0206,VALID,6,VALID,0,
2010-02-06, 00:48:04,VALID,1005.92,VALID,0,VALID,95.033,VALID,0,VALID,23.0401,VALID,6,VALID,0,
2010-02-06, 00:49:04,VALID,1005.87,VALID,0,VALID,95.0558,VALID,0,VALID,23.0401,VALID,6,VALID,0,
2010-02-06, 00:50:04,VALID,1005.89,VALID,0,VALID,95.0635,VALID,0,VALID,23.0401,VALID,6,VALID,0,
2010-02-06, 00:51:04,VALID,1005.88,VALID,0,VALID,95.0787,VALID,0,VALID,23.0224,VALID,6,VALID,0,
2010-02-06, 00:52:04,VALID,1005.86,VALID,0,VALID,95.0558,VALID,0,VALID,23.0012,VALID,6,VALID,0,
2010-02-06, 00:53:04,VALID,1005.83,VALID,0,VALID,95.0711,VALID,0,VALID,23.0029,VALID,6,VALID,0,
2010-02-06, 00:54:04,VALID,1005.84,VALID,0,VALID,95.0711,VALID,0,VALID,23.0224,VALID,6,VALID,0,
2010-02-06, 00:55:04,VALID,1005.83,VALID,0,VALID,95.0864,VALID,0,VALID,23.0029,VALID,6,VALID,0,
2010-02-06, 00:56:04,VALID,1005.8,VALID,0,VALID,95.0864,VALID,0,VALID,22.9622,VALID,6,VALID,0,
2010-02-06, 00:57:04,VALID,1005.82,VALID,0,VALID,95.094,VALID,0,VALID,22.9428,VALID,6,VALID,0,
2010-02-06, 00:58:04,VALID,1005.79,VALID,0,VALID,95.0635,VALID,0,VALID,22.9233,VALID,6,VALID,0,
2010-02-06, 00:59:04,VALID,1005.77,VALID,0,VALID,95.0711,VALID,0,VALID,22.9445,VALID,6,VALID,0,
2010-02-06, 01:00:04,VALID,1005.73,VALID,0,VALID,95.0864,VALID,0,VALID,22.9251,VALID,6,VALID,0,
2010-02-06, 01:01:04,VALID,1005.74,VALID,0,VALID,95.094,VALID,0,VALID,22.8844,VALID,6,VALID,0,
2010-02-06, 01:02:04,VALID,1005.7,VALID,0,VALID,95.0635,VALID,0,VALID,22.8632,VALID,6,VALID,0,
2010-02-06, 01:03:04,VALID,1005.68,VALID,0,VALID,95.1016,VALID,0,VALID,22.9039,VALID,6,VALID,0,
2010-02-06, 01:04:04,VALID,1005.68,VALID,0,VALID,95.1093,VALID,0,VALID,22.9251,VALID,6,VALID,0,
2010-02-06, 01:05:04,VALID,1005.65,VALID,0,VALID,95.1245,VALID,0,VALID,22.8649,VALID,6,VALID,0,
2010-02-06, 01:06:04,VALID,1005.62,VALID,0,VALID,95.1016,VALID,0,VALID,22.8472,VALID,6,VALID,0,
2010-02-06, 01:07:04,VALID,1005.6,VALID,0,VALID,95.094,VALID,0,VALID,22.8472,VALID,6,VALID,0,
2010-02-06, 01:08:04,VALID,1005.6,VALID,0,VALID,95.1169,VALID,0,VALID,22.8472,VALID,6,VALID,0,
2010-02-06, 01:09:04,VALID,1005.58,VALID,0,VALID,95.1474,VALID,0,VALID,22.8472,VALID,6,VALID,0,
2010-02-06, 01:10:04,VALID,1005.59,VALID,0,VALID,95.1474,VALID,0,VALID,22.8066,VALID,6,VALID,0,
2010-02-06, 01:11:04,VALID,1005.56,VALID,0,VALID,95.155,VALID,0,VALID,22.7871,VALID,6,VALID,0,
2010-02-06, 01:12:04,VALID,1005.57,VALID,0,VALID,95.1398,VALID,0,VALID,22.7677,VALID,6,VALID,0,
2010-02-06, 01:13:04,VALID,1005.55,VALID,0,VALID,95.1627,VALID,0,VALID,22.7677,VALID,6,VALID,0,
2010-02-06, 01:14:04,VALID,1005.58,VALID,0,VALID,95.1474,VALID,0.100563,VALID,22.8066,VALID,6,VALID,0,
2010-02-06, 01:15:04,VALID,1005.58,VALID,0,VALID,95.1779,VALID,0,VALID,22.7659,VALID,6,VALID,0,
2010-02-06, 01:16:04,VALID,1005.53,VALID,0,VALID,95.1779,VALID,0,VALID,22.7854,VALID,6,VALID,0,
2010-02-06, 01:17:04,VALID,1005.52,VALID,0,VALID,95.2008,VALID,0.100563,VALID,22.8066,VALID,6,VALID,0,
2010-02-06, 01:18:04,VALID,1005.52,VALID,0,VALID,95.2008,VALID,0.100563,VALID,22.8066,VALID,6,VALID,0,
2010-02-06, 01:19:04,VALID,1005.51,VALID,0,VALID,95.2313,VALID,0,VALID,22.8066,VALID,6,VALID,0,
2010-02-06, 01:20:04,VALID,1005.5,VALID,0,VALID,95.2161,VALID,0.100563,VALID,22.7871,VALID,6,VALID,0,
2010-02-06, 01:21:04,VALID,1005.51,VALID,0,VALID,95.2313,VALID,0,VALID,22.7871,VALID,6,VALID,0,
2010-02-06, 01:22:04,VALID,1005.49,VALID,0,VALID,95.2313,VALID,0,VALID,22.7677,VALID,6,VALID,0,
2010-02-06, 01:23:04,VALID,1005.51,VALID,0,VALID,95.2618,VALID,0,VALID,22.7465,VALID,6,VALID,0,
2010-02-06, 01:24:04,VALID,1005.47,VALID,0,VALID,95.2695,VALID,0.100563,VALID,22.7482,VALID,6,VALID,0,
2010-02-06, 01:25:04,VALID,1005.5,VALID,0,VALID,95.2847,VALID,0,VALID,22.727,VALID,6,VALID,0,
2010-02-06, 01:26:04,VALID,1005.47,VALID,0,VALID,95.2695,VALID,0,VALID,22.7482,VALID,6,VALID,0,
2010-02-06, 01:27:04,VALID,1005.46,VALID,0,VALID,95.2618,VALID,0.100563,VALID,22.7482,VALID,6,VALID,0,
2010-02-06, 01:28:04,VALID,1005.46,VALID,0,VALID,95.2695,VALID,0,VALID,22.7482,VALID,6,VALID,0,
2010-02-06, 01:29:04,VALID,1005.43,VALID,0,VALID,95.2771,VALID,0,VALID,22.7482,VALID,6,VALID,0,
2010-02-06, 01:30:04,VALID,1005.42,VALID,0,VALID,95.3076,VALID,0,VALID,22.7482,VALID,6,VALID,0,
2010-02-06, 01:31:04,VALID,1005.4,VALID,0,VALID,95.3229,VALID,0,VALID,22.7888,VALID,6,VALID,0,
2010-02-06, 01:32:04,VALID,1005.4,VALID,0,VALID,95.3305,VALID,0,VALID,22.7287,VALID,6,VALID,0,
2010-02-06, 01:33:04,VALID,1005.42,VALID,0,VALID,95.3229,VALID,0,VALID,22.7287,VALID,6,VALID,0,
2010-02-06, 01:34:04,VALID,1005.4,VALID,0,VALID,95.3381,VALID,0,VALID,22.7287,VALID,6,VALID,0,
2010-02-06, 01:35:04,VALID,1005.41,VALID,0,VALID,95.3229,VALID,0,VALID,22.7093,VALID,6,VALID,0,
2010-02-06, 01:36:04,VALID,1005.4,VALID,0,VALID,95.3534,VALID,0,VALID,22.7499,VALID,6,VALID,0,
2010-02-06, 01:37:04,VALID,1005.4,VALID,0,VALID,95.3686,VALID,0.100563,VALID,22.727,VALID,6,VALID,0,
2010-02-06, 01:38:04,VALID,1005.42,VALID,0,VALID,95.3534,VALID,0,VALID,22.6881,VALID,6,VALID,0,
2010-02-06, 01:39:04,VALID,1005.4,VALID,0,VALID,95.3763,VALID,0,VALID,22.7093,VALID,6,VALID,0,
2010-02-06, 01:40:04,VALID,1005.4,VALID,0,VALID,95.3915,VALID,0.100563,VALID,22.7076,VALID,6,VALID,0,
2010-02-06, 01:41:04,VALID,1005.39,VALID,0,VALID,95.3991,VALID,0.100563,VALID,22.6898,VALID,6,VALID,0,
2010-02-06, 01:42:04,VALID,1005.41,VALID,0,VALID,95.3915,VALID,0,VALID,22.6686,VALID,6,VALID,0,
2010-02-06, 01:43:04,VALID,1005.39,VALID,0,VALID,95.3763,VALID,0,VALID,22.6704,VALID,6,VALID,0,
2010-02-06, 01:44:04,VALID,1005.36,VALID,0,VALID,95.3991,VALID,0,VALID,22.5942,VALID,6,VALID,0,
2010-02-06, 01:45:04,VALID,1005.36,VALID,0,VALID,95.3534,VALID,0,VALID,22.5536,VALID,6,VALID,0,
2010-02-06, 01:46:04,VALID,1005.37,VALID,0,VALID,95.3686,VALID,0,VALID,22.5359,VALID,6,VALID,0,
2010-02-06, 01:47:04,VALID,1005.38,VALID,0,VALID,95.361,VALID,0,VALID,22.5164,VALID,6,VALID,0,
2010-02-06, 01:48:04,VALID,1005.35,VALID,0,VALID,95.3534,VALID,0,VALID,22.497,VALID,6,VALID,0,
2010-02-06, 01:49:04,VALID,1005.33,VALID,0,VALID,95.3381,VALID,0,VALID,22.4563,VALID,6,VALID,0,
2010-02-06, 01:50:04,VALID,1005.33,VALID,0,VALID,95.3381,VALID,0,VALID,22.4563,VALID,6,VALID,0,
2010-02-06, 01:51:04,VALID,1005.3,VALID,0,VALID,95.361,VALID,0,VALID,22.497,VALID,6,VALID,0,
2010-02-06, 01:52:04,VALID,1005.29,VALID,0,VALID,95.3457,VALID,0,VALID,22.5164,VALID,6,VALID,0,
2010-02-06, 01:53:04,VALID,1005.27,VALID,0,VALID,95.3686,VALID,0,VALID,22.5359,VALID,6,VALID,0,
2010-02-06, 01:54:04,VALID,1005.28,VALID,0,VALID,95.361,VALID,0,VALID,22.5536,VALID,6,VALID,0,
2010-02-06, 01:55:04,VALID,1005.25,VALID,0,VALID,95.3915,VALID,0,VALID,22.5942,VALID,6,VALID,0,
2010-02-06, 01:56:04,VALID,1005.26,VALID,0,VALID,95.4068,VALID,0,VALID,22.5748,VALID,6,VALID,0,
2010-02-06, 01:57:04,VALID,1005.23,VALID,0,VALID,95.4297,VALID,0,VALID,22.5536,VALID,6,VALID,0,
2010-02-06, 01:58:04,VALID,1005.21,VALID,0,VALID,95.422,VALID,0,VALID,22.5731,VALID,6,VALID,0,
2010-02-06, 01:59:04,VALID,1005.21,VALID,0,VALID,95.4373,VALID,0,VALID,22.5553,VALID,6,VALID,0,
2010-02-06, 02:00:04,VALID,1005.19,VALID,0,VALID,95.4373,VALID,0,VALID,22.5342,VALID,6,VALID,0,
2010-02-06, 02:01:04,VALID,1005.15,VALID,0,VALID,95.4373,VALID,0,VALID,22.4758,VALID,6,VALID,0,
2010-02-06, 02:02:04,VALID,1005.15,VALID,0,VALID,95.4144,VALID,0,VALID,22.4758,VALID,6,VALID,0,
2010-02-06, 02:03:04,VALID,1005.17,VALID,0,VALID,95.4297,VALID,0,VALID,22.4758,VALID,6,VALID,0,
2010-02-06, 02:04:04,VALID,1005.18,VALID,0,VALID,95.4373,VALID,0,VALID,22.497,VALID,6,VALID,0,
2010-02-06, 02:05:04,VALID,1005.17,VALID,0,VALID,95.4449,VALID,0,VALID,22.497,VALID,6,VALID,0,
2010-02-06, 02:06:04,VALID,1005.18,VALID,0,VALID,95.4373,VALID,0,VALID,22.4953,VALID,7,VALID,0,
2010-02-06, 02:07:04,VALID,1005.16,VALID,0,VALID,95.4373,VALID,0,VALID,22.5342,VALID,7,VALID,0,
2010-02-06, 02:08:04,VALID,1005.14,VALID,0,VALID,95.4678,VALID,0,VALID,22.5553,VALID,7,VALID,0,
2010-02-06, 02:09:04,VALID,1005.14,VALID,0,VALID,95.4831,VALID,0,VALID,22.5342,VALID,6,VALID,0,
2010-02-06, 02:10:04,VALID,1005.14,VALID,0,VALID,95.4754,VALID,0,VALID,22.5553,VALID,6,VALID,0,
2010-02-06, 02:11:04,VALID,1005.15,VALID,0,VALID,95.4831,VALID,0,VALID,22.5553,VALID,6,VALID,0,
2010-02-06, 02:12:04,VALID,1005.18,VALID,0,VALID,95.4907,VALID,0,VALID,22.5553,VALID,6,VALID,0,
2010-02-06, 02:13:04,VALID,1005.17,VALID,0,VALID,95.4754,VALID,0,VALID,22.5147,VALID,6,VALID,0,
2010-02-06, 02:14:04,VALID,1005.14,VALID,0,VALID,95.4754,VALID,0,VALID,22.5342,VALID,6,VALID,0,
2010-02-06, 02:15:04,VALID,1005.11,VALID,0,VALID,95.4831,VALID,0,VALID,22.5359,VALID,7,VALID,0,
2010-02-06, 02:16:04,VALID,1005.15,VALID,0,VALID,95.4831,VALID,0,VALID,22.5359,VALID,6,VALID,0,
2010-02-06, 02:17:04,VALID,1005.14,VALID,0,VALID,95.4907,VALID,0,VALID,22.5147,VALID,6,VALID,0,
2010-02-06, 02:18:04,VALID,1005.17,VALID,0,VALID,95.4983,VALID,0,VALID,22.4758,VALID,6,VALID,0,
2010-02-06, 02:19:04,VALID,1005.16,VALID,0,VALID,95.4754,VALID,0,VALID,22.458,VALID,6,VALID,0,
2010-02-06, 02:20:04,VALID,1005.18,VALID,0,VALID,95.4754,VALID,0,VALID,22.497,VALID,6,VALID,0,
2010-02-06, 02:21:04,VALID,1005.18,VALID,0,VALID,95.4754,VALID,0,VALID,22.5164,VALID,7,VALID,0,
2010-02-06, 02:22:04,VALID,1005.19,VALID,0,VALID,95.4983,VALID,0,VALID,22.5553,VALID,6,VALID,0,
2010-02-06, 02:23:04,VALID,1005.22,VALID,0,VALID,95.506,VALID,0,VALID,22.5748,VALID,6,VALID,0,
2010-02-06, 02:24:04,VALID,1005.2,VALID,0,VALID,95.506,VALID,0,VALID,22.5942,VALID,7,VALID,0,
2010-02-06, 02:25:04,VALID,1005.2,VALID,0,VALID,95.5288,VALID,0,VALID,22.5731,VALID,6,VALID,0,
2010-02-06, 02:26:04,VALID,1005.19,VALID,0,VALID,95.5288,VALID,0,VALID,22.5536,VALID,7,VALID,0,
2010-02-06, 02:27:04,VALID,1005.18,VALID,0,VALID,95.5212,VALID,0,VALID,22.5748,VALID,7,VALID,0,
2010-02-06, 02:28:04,VALID,1005.18,VALID,0,VALID,95.5365,VALID,0,VALID,22.5553,VALID,6,VALID,0,
2010-02-06, 02:29:04,VALID,1005.18,VALID,0,VALID,95.5288,VALID,0,VALID,22.5147,VALID,7,VALID,0,
2010-02-06, 02:30:04,VALID,1005.17,VALID,0,VALID,95.5288,VALID,0,VALID,22.5342,VALID,6,VALID,0,
2010-02-06, 02:31:04,VALID,1005.19,VALID,0,VALID,95.5288,VALID,0,VALID,22.5748,VALID,6,VALID,0,
2010-02-06, 02:32:04,VALID,1005.18,VALID,0,VALID,95.5288,VALID,0,VALID,22.5942,VALID,6,VALID,0,
2010-02-06, 02:33:04,VALID,1005.2,VALID,0,VALID,95.5136,VALID,0,VALID,22.5942,VALID,7,VALID,0,
2010-02-06, 02:34:04,VALID,1005.15,VALID,0,VALID,95.5441,VALID,0,VALID,22.5925,VALID,6,VALID,0,
2010-02-06, 02:35:04,VALID,1005.13,VALID,0,VALID,95.5441,VALID,0,VALID,22.6137,VALID,6,VALID,0,
2010-02-06, 02:36:04,VALID,1005.16,VALID,0,VALID,95.5365,VALID,0,VALID,22.5925,VALID,6,VALID,0,
2010-02-06, 02:37:04,VALID,1005.13,VALID,0,VALID,95.5517,VALID,0,VALID,22.5925,VALID,6,VALID,0,
2010-02-06, 02:38:04,VALID,1005.14,VALID,0,VALID,95.567,VALID,0,VALID,22.5942,VALID,6,VALID,0,
2010-02-06, 02:39:04,VALID,1005.14,VALID,0,VALID,95.5594,VALID,0,VALID,22.5536,VALID,6,VALID,0,
2010-02-06, 02:40:04,VALID,1005.13,VALID,0,VALID,95.5441,VALID,0,VALID,22.5731,VALID,6,VALID,0,
2010-02-06, 02:41:04,VALID,1005.12,VALID,0,VALID,95.5365,VALID,0,VALID,22.6137,VALID,6,VALID,0,
2010-02-06, 02:42:04,VALID,1005.12,VALID,0,VALID,95.5441,VALID,0,VALID,22.5925,VALID,6,VALID,0,
2010-02-06, 02:43:04,VALID,1005.13,VALID,0,VALID,95.5441,VALID,0,VALID,22.5925,VALID,6,VALID,0,
2010-02-06, 02:44:04,VALID,1005.1,VALID,0,VALID,95.5365,VALID,0,VALID,22.6332,VALID,6,VALID,0,
2010-02-06, 02:45:04,VALID,1005.12,VALID,0,VALID,95.5441,VALID,0,VALID,22.6332,VALID,6,VALID,0,
2010-02-06, 02:46:04,VALID,1005.12,VALID,0,VALID,95.5594,VALID,0,VALID,22.6332,VALID,7,VALID,0,
2010-02-06, 02:47:04,VALID,1005.14,VALID,0,VALID,95.5365,VALID,0,VALID,22.6315,VALID,6,VALID,0,
2010-02-06, 02:48:04,VALID,1005.1,VALID,0,VALID,95.5517,VALID,0,VALID,22.6526,VALID,6,VALID,0,
2010-02-06, 02:49:04,VALID,1005.11,VALID,0,VALID,95.5517,VALID,0,VALID,22.612,VALID,6,VALID,0,
2010-02-06, 02:50:04,VALID,1005.1,VALID,0,VALID,95.5517,VALID,0,VALID,22.6526,VALID,6,VALID,0,
2010-02-06, 02:51:04,VALID,1005.12,VALID,0,VALID,95.5365,VALID,0,VALID,22.612,VALID,6,VALID,0,
2010-02-06, 02:52:04,VALID,1005.11,VALID,0,VALID,95.5365,VALID,0,VALID,22.6526,VALID,6,VALID,0,
2010-02-06, 02:53:04,VALID,1005.08,VALID,0,VALID,95.5365,VALID,0,VALID,22.6332,VALID,7,VALID,0,
2010-02-06, 02:54:04,VALID,1005.12,VALID,0,VALID,95.5441,VALID,0,VALID,22.6137,VALID,7,VALID,0,
2010-02-06, 02:55:04,VALID,1005.09,VALID,0,VALID,95.5288,VALID,0,VALID,22.5925,VALID,7,VALID,0,
2010-02-06, 02:56:04,VALID,1005.07,VALID,0,VALID,95.5365,VALID,0,VALID,22.6137,VALID,6,VALID,0,
2010-02-06, 02:57:04,VALID,1005.07,VALID,0,VALID,95.5288,VALID,0,VALID,22.612,VALID,6,VALID,0,
2010-02-06, 02:58:04,VALID,1005.08,VALID,0,VALID,95.5365,VALID,0,VALID,22.6137,VALID,6,VALID,0,
2010-02-06, 02:59:04,VALID,1005.1,VALID,0,VALID,95.5288,VALID,0,VALID,22.5925,VALID,6,VALID,0,
2010-02-06, 03:00:04,VALID,1005.08,VALID,0,VALID,95.5212,VALID,0,VALID,22.6332,VALID,6,VALID,0,
2010-02-06, 03:01:04,VALID,1005.11,VALID,0,VALID,95.5365,VALID,0,VALID,22.6526,VALID,6,VALID,0,
2010-02-06, 03:02:04,VALID,1005.09,VALID,0,VALID,95.5441,VALID,0,VALID,22.6332,VALID,7,VALID,0,
2010-02-06, 03:03:04,VALID,1005.09,VALID,0,VALID,95.5212,VALID,0,VALID,22.5925,VALID,6,VALID,0,
2010-02-06, 03:04:04,VALID,1005.09,VALID,0,VALID,95.5288,VALID,0,VALID,22.5731,VALID,6,VALID,0,
2010-02-06, 03:05:04,VALID,1005.07,VALID,0,VALID,95.5365,VALID,0,VALID,22.5731,VALID,6,VALID,0,
2010-02-06, 03:06:04,VALID,1005.06,VALID,0,VALID,95.5365,VALID,0,VALID,22.5731,VALID,6,VALID,0,
2010-02-06, 03:07:04,VALID,1005.04,VALID,0,VALID,95.5517,VALID,0,VALID,22.6137,VALID,6,VALID,0,
2010-02-06, 03:08:04,VALID,1005.04,VALID,0,VALID,95.5441,VALID,0,VALID,22.6349,VALID,7,VALID,0,
2010-02-06, 03:09:04,VALID,1005.03,VALID,0,VALID,95.5365,VALID,0,VALID,22.5942,VALID,6,VALID,0,
2010-02-06, 03:10:04,VALID,1005.05,VALID,0,VALID,95.5441,VALID,0,VALID,22.5748,VALID,6,VALID,0,
2010-02-06, 03:11:04,VALID,1005.04,VALID,0,VALID,95.5365,VALID,0,VALID,22.5553,VALID,6,VALID,0,
2010-02-06, 03:12:04,VALID,1005.06,VALID,0,VALID,95.5288,VALID,0,VALID,22.5553,VALID,7,VALID,0,
2010-02-06, 03:13:04,VALID,1005.09,VALID,0,VALID,95.5288,VALID,0,VALID,22.5147,VALID,6,VALID,0,
2010-02-06, 03:14:04,VALID,1005.07,VALID,0,VALID,95.5212,VALID,0.100563,VALID,22.513,VALID,7,VALID,0,
2010-02-06, 03:15:04,VALID,1005.06,VALID,0,VALID,95.5212,VALID,0.100563,VALID,22.5519,VALID,7,VALID,0,
2010-02-06, 03:16:04,VALID,1005.06,VALID,0,VALID,95.5288,VALID,0,VALID,22.5731,VALID,7,VALID,0,
2010-02-06, 03:17:04,VALID,1005.07,VALID,0,VALID,95.5441,VALID,0,VALID,22.612,VALID,6,VALID,0,
2010-02-06, 03:18:04,VALID,1005.07,VALID,0,VALID,95.5441,VALID,0.100563,VALID,22.612,VALID,7,VALID,0,
2010-02-06, 03:19:04,VALID,1005.07,VALID,0,VALID,95.5441,VALID,0.100563,VALID,22.6315,VALID,7,VALID,0,
2010-02-06, 03:20:04,VALID,1005.1,VALID,0,VALID,95.5594,VALID,0,VALID,22.6721,VALID,6,VALID,0,
2010-02-06, 03:21:04,VALID,1005.11,VALID,0,VALID,95.5746,VALID,0.100563,VALID,22.6492,VALID,6,VALID,0,
2010-02-06, 03:22:04,VALID,1005.11,VALID,0,VALID,95.5746,VALID,0.100563,VALID,22.6492,VALID,6,VALID,0,
2010-02-06, 03:23:04,VALID,1005.11,VALID,0,VALID,95.567,VALID,0.100563,VALID,22.6898,VALID,6,VALID,0,
2010-02-06, 03:24:04,VALID,1005.13,VALID,0,VALID,95.6051,VALID,0.100563,VALID,22.6686,VALID,6,VALID,0,
2010-02-06, 03:25:04,VALID,1005.15,VALID,0,VALID,95.5746,VALID,0.100563,VALID,22.6686,VALID,7,VALID,0,
2010-02-06, 03:26:04,VALID,1005.16,VALID,0,VALID,95.5899,VALID,0.100563,VALID,22.6492,VALID,7,VALID,0,
2010-02-06, 03:27:04,VALID,1005.18,VALID,0,VALID,95.5975,VALID,0.100563,VALID,22.6898,VALID,6,VALID,0,
2010-02-06, 03:28:04,VALID,1005.2,VALID,0,VALID,95.5975,VALID,0.100563,VALID,22.6704,VALID,6,VALID,0,
2010-02-06, 03:29:04,VALID,1005.18,VALID,0,VALID,95.5975,VALID,0,VALID,22.6332,VALID,6,VALID,0,
2010-02-06, 03:30:04,VALID,1005.21,VALID,0,VALID,95.6051,VALID,0,VALID,22.5731,VALID,6,VALID,0.500391,
2010-02-06, 03:31:04,VALID,1005.2,VALID,0,VALID,95.5822,VALID,0,VALID,22.596,VALID,6,VALID,0.553906,
2010-02-06, 03:32:04,VALID,1005.23,VALID,0,VALID,95.5746,VALID,0,VALID,22.5748,VALID,6,VALID,0.503906,
2010-02-06, 03:33:04,VALID,1005.22,VALID,0,VALID,95.5746,VALID,0,VALID,22.6137,VALID,6,VALID,0.395703,
2010-02-06, 03:34:04,VALID,1005.2,VALID,0,VALID,95.5822,VALID,0,VALID,22.5925,VALID,6,VALID,0.348437,
2010-02-06, 03:35:04,VALID,1005.27,VALID,0,VALID,95.6051,VALID,0,VALID,22.612,VALID,6,VALID,0.425781,
2010-02-06, 03:36:04,VALID,1005.26,VALID,0,VALID,95.5899,VALID,0,VALID,22.6332,VALID,6,VALID,0.43125,
2010-02-06, 03:37:04,VALID,1005.28,VALID,0,VALID,95.6128,VALID,0,VALID,22.612,VALID,6,VALID,0.396484,
2010-02-06, 03:38:04,VALID,1005.28,VALID,0,VALID,95.6051,VALID,0,VALID,22.612,VALID,6,VALID,0.444531,
2010-02-06, 03:39:04,VALID,1005.29,VALID,0,VALID,95.6051,VALID,0,VALID,22.6332,VALID,6,VALID,0.413672,
2010-02-06, 03:40:04,VALID,1005.29,VALID,0,VALID,95.6204,VALID,0,VALID,22.6526,VALID,6,VALID,0.232812,
2010-02-06, 03:41:04,VALID,1005.32,VALID,0,VALID,95.6128,VALID,0,VALID,22.6915,VALID,6,VALID,0.134766,
2010-02-06, 03:42:04,VALID,1005.28,VALID,0,VALID,95.6204,VALID,0,VALID,22.7093,VALID,6,VALID,0.178906,
2010-02-06, 03:43:04,VALID,1005.33,VALID,0,VALID,95.6356,VALID,0,VALID,22.7482,VALID,6,VALID,0,
2010-02-06, 03:44:04,VALID,1005.3,VALID,0,VALID,95.6356,VALID,0,VALID,22.7677,VALID,6,VALID,0.0121094,
2010-02-06, 03:45:04,VALID,1005.3,VALID,0,VALID,95.6509,VALID,0,VALID,22.7694,VALID,6,VALID,0,
2010-02-06, 03:46:04,VALID,1005.35,VALID,0,VALID,95.6433,VALID,0,VALID,22.7287,VALID,6,VALID,0.00117188,
2010-02-06, 03:47:04,VALID,1005.34,VALID,0,VALID,95.6433,VALID,0,VALID,22.7499,VALID,6,VALID,0.174219,
2010-02-06, 03:48:04,VALID,1005.36,VALID,0,VALID,95.6738,VALID,0,VALID,22.7305,VALID,6,VALID,0.0726563,
2010-02-06, 03:49:04,VALID,1005.35,VALID,0,VALID,95.6814,VALID,0,VALID,22.7093,VALID,6,VALID,0.187891,
2010-02-06, 03:50:04,VALID,1005.36,VALID,0,VALID,95.6585,VALID,0,VALID,22.7305,VALID,6,VALID,0.1,
2010-02-06, 03:51:04,VALID,1005.36,VALID,0,VALID,95.6433,VALID,0,VALID,22.6915,VALID,6,VALID,0.20625,
2010-02-06, 03:52:04,VALID,1005.38,VALID,0,VALID,95.6585,VALID,0,VALID,22.612,VALID,6,VALID,0,
2010-02-06, 03:53:04,VALID,1005.36,VALID,0,VALID,95.6585,VALID,0,VALID,22.5942,VALID,6,VALID,0,
2010-02-06, 03:54:04,VALID,1005.35,VALID,0,VALID,95.6509,VALID,0,VALID,22.4953,VALID,6,VALID,0.158594,
2010-02-06, 03:55:04,VALID,1005.35,VALID,0,VALID,95.628,VALID,0,VALID,22.4563,VALID,6,VALID,0.192578,
2010-02-06, 03:56:04,VALID,1005.37,VALID,0,VALID,95.6128,VALID,0,VALID,22.4775,VALID,6,VALID,0,
2010-02-06, 03:57:04,VALID,1005.4,VALID,0,VALID,95.5975,VALID,0,VALID,22.497,VALID,6,VALID,0,
2010-02-06, 03:58:04,VALID,1005.4,VALID,0,VALID,95.5975,VALID,0,VALID,22.4953,VALID,6,VALID,0,
2010-02-06, 03:59:04,VALID,1005.41,VALID,0,VALID,95.5899,VALID,0,VALID,22.4953,VALID,6,VALID,0.176172,
2010-02-06, 04:00:04,VALID,1005.43,VALID,0,VALID,95.5975,VALID,0,VALID,22.4953,VALID,6,VALID,0,
2010-02-06, 04:01:04,VALID,1005.43,VALID,0,VALID,95.6051,VALID,0,VALID,22.4758,VALID,6,VALID,0,